map of SJO home
SJO - Airport
Location
City:  San José, Alajuela, Costa Rica
Near (Alt.):Río Segundo
Name:Juan Santamaría International Airport
ICAO:MROC
IATA:SJO

Details
Type:Airport (Aerodrome, Airfield)
Use:Public/Civil, International (customs port of entry)
Latitude:9°59'38"N (9.993903)
Longitude:84°12'32"W (-84.208855)
Elevation:3021 ft (921 m)
Variation:1.87°W (WMM2015v2 magnetic declination)
-0.13° annual change
Runways:1
Longest:9882 × 148 ft (3012 × 45 m)

Time
Time Zone:UTC-6
Local Time:

Weather
METAR:MROC 041400Z 10015G26KT CAVOK 23/13 A3002 NOSIG
TAF:MROC 041100Z 0412/0512 11012KT 9999 FEW035 TX29/0419Z TN19/0510Z
TEMPO 0412/0418 09015G25KT

Related Locations
Nearby:
Farthest:CCK: 12266 mi / 19741 km
West Island (Pulau Panjang) [Cocos (Keeling) Islands], CC

Find:

   beyond  
but within

Other Information
Maps:
NOTAMs:
Links:
Sources:

  
  • flag of Costa Rica
  

Airport Diagram

Airport diagram for SJO

Larger airport diagram (OBSOLETE) from NGA

Sectional Chart

Flight Planning
at skyvector.com

Satellite Image

Google Maps Satellite view

 

Copyright © 2004-2019 Karl L. Swartz. All rights reserved.
The Great Circle Mapper name and logo are trademarks of the Great Circle Mapper.
All other trademarks mentioned herein belong to their respective owners.
Please see credits for attibutions and further copyright information.

  Follow gcmap on Facebook Follow gcmap on Twitter GCmap on LinkedIn

hCard Microformat

Geo Microformat